Showing default

BEIDOU 3M10, 43582

Orbit data source: Space-Track

BEIDOU 3M10, 43582 is a payload satellite owned by CNSA (CN) in MEO that was launched on Sun, 29 Jul 2018 UTC via a CHANG ZHENG 3B/YZ-1 launch vehicle from the Xichang Space Center, China (XSC). Payload-class satellites include a variety of spacecraft equipped with specific instruments for various scientific and technological missions. These include communications satellites like Starlink; space stations such as the ISS; scientific satellites like the Hubble; Earth observation satellites from companies like Planet Labs, Umbra, and HawkEye 360; GPS; miniature CubeSats for education and research; and military/defense satellites.

Loading next visibility...
Identifier
43582, 2018-062B
Orbit
MEO
Country
Flag of CNCN / PRC
Related business
Manufacturer
CAST
Mission
Operational Defense Navigation
Bus & Motor
BD-3M, Unknown motor
Mass
1,014 kg wet, ~850 kg dry
Launch date (UTC)
2018-07-29 (7 years ago)
Launch vehicle
CHANG ZHENG 3B/YZ-1
Launch site
Xichang Space Center, China (XSC)
Object type
Payload
Rocket body
Debris
Shape & HBR
Box + 2 Pan, 5.0 m
Radar Cross Section
8.984 m², Large (>1 m²)

Expand to show TLE details & history
Last TLE update: 2 days ago

TLE from 2 days ago
0 BEIDOU 3M10
1 43582U 18062B   25240.32974263  .00000037  00000-0  00000-0 0  9998
2 43582  54.0972 192.2504 0005511  14.1328 345.8574  1.86229906 48185
Epoch: 2025-08-28T07:54Z
TLE epoch observation values (Epoch: 2025-08-28T07:54:49.763Z)
Latitude
-0.00002°
Longitude
96.73986°
Altitude
21,513.502 km
Speed
3.781 km/s
True Right ascension
12h 48m 57s
True Declination
0° 00' 00"
Sunlit
Object was in daylight at epoch
Visualization orbit readout
Latitude
Unknown
Longitude
Unknown
Altitude
Unknown
Speed
Unknown
Apparent Right ascension
Unknown
Apparent Declination
Unknown
Sunlit
N/A
Visualization observer readout
Local Sidereal Time
02:36:24
Azimuth
Unknown
Elevation
Unknown
Doppler factor
Unknown
Orbital elements
Apogee altitude
21,543.582 km
Perigee altitude
21,512.824 km
Semi-major axis
27,906.34 km
Eccentricity
0.00055
Inclination
54.0972°
RAAN
192.2504°
Arg. of periapsis
14.1328°
True anomaly
345.84196°
Mean anomaly
345.8574°
Eccentric anomaly
345.84968°
Mean motion
0.46557 °/min
Orbital period
773.24 mins
BSTAR
0
Loading maneuver chart data...
Computing Atmospheric mass density...
Loading historical data...
Loading historical data...
Loading historical data...
Loading historical data...
Loading historical data...
Loading historical data...
Loading historical data...
Other satellites on launch #62 in the year 2018 (2018-07-29 UTC)

Documentation

Showing up to 5 results
|